Ord, NE

3:36 PM CDT on May 25, 2017 (GMT -0500)
Sharp

Weather History for KODX - July, 2013

Change the Weather History Date:

Tuesday, July 23, 2013

  Actual Average Record
Temperature  
Mean Temperature 72 °F 75 °F  
Max Temperature 81 °F 88 °F 102 °F (2005)
Min Temperature 63 °F 62 °F 52 °F (2003)
Degree Days  
Heating Degree Days 0 0  
Month to date heating degree days 1 0  
Since 1 June heating degree days 48 37  
Since 1 July heating degree days 1 0  
Cooling Degree Days 7 10  
Month to date cooling degree days 246 217  
Year to date cooling degree days 459 420  
Since 1 June cooling degree days 412 379  
Growing Degree Days 22 (Base 50)    
Moisture  
Dew Point 62 °F    
Average Humidity 74    
Maximum Humidity 93    
Minimum Humidity 54    
Precipitation  
Precipitation 0.53 in 0.08 in 1.72 in (1926)
Month to date precipitation 2.88 1.93  
Year to date precipitation 14.95 14.71  
Sea Level Pressure  
Sea Level Pressure 29.99 in    
Wind  
Wind Speed 6 mph (NE)    
Max Wind Speed 26 mph    
Max Gust Speed 36 mph    
Visibility 9 miles    
Events Rain , Thunderstorm    
T = Trace of Precipitation, MM = Missing Value Source: NWS Daily Summary

Daily Weather History Graph

Daily Weather History Graph

Search for Another Location

Airport or City:

Trip Planner

Search our weather history database for the weather conditions in past years. The results will help you decide how hot, cold, wet, or windy it might be!

Date:

Astronomy

Jul. 23, 2013 Rise Set
Actual Time 6:21 AM CDT 9:02 PM CDT
Civil Twilight 5:49 AM CDT 9:34 PM CDT
Nautical Twilight 5:09 AM CDT 10:14 PM CDT
Astronomical Twilight 4:23 AM CDT 11:00 PM CDT
Moon 9:29 PM CDT (7/23) 7:34 AM CDT (7/23)
Length of Visible Light 15h 44m
Length of Day
14h 40m
Full, 99% of the Moon is Illuminated
Jul 23
Full
Jul 29
Last Quarter
Aug 6
New
Aug 14
First Quarter
Aug 20
Full

Hourly Weather History & Observations

Time (CDT) Temp. Heat Index Dew Point Humidity Pressure Visibility Wind Dir Wind Speed Gust Speed Precip Events Conditions
12:53 AM 68.0 °F - 59.0 °F 73% 29.86 in 10.0 mi East 4.6 mph - N/A   Clear
1:53 AM 68.0 °F - 60.1 °F 76% 29.86 in 10.0 mi ENE 3.5 mph - N/A   Scattered Clouds
2:53 AM 70.0 °F - 60.1 °F 71% 29.92 in 10.0 mi NW 3.5 mph - N/A   Scattered Clouds
3:09 AM 69.8 °F - 60.8 °F 73% 30.04 in 10.0 mi NNW 25.3 mph 34.5 mph N/A Thunderstorm Overcast
3:17 AM 66.2 °F - 62.6 °F 88% 30.08 in 4.0 mi NW 24.2 mph 34.5 mph 0.06 in Rain , Thunderstorm Heavy Thunderstorms and Rain
3:21 AM 64.4 °F - 62.6 °F 94% 30.10 in 1.8 mi NNW 25.3 mph 35.7 mph 0.16 in Rain , Thunderstorm Heavy Thunderstorms and Rain
3:35 AM 64.4 °F - 62.6 °F 94% 30.09 in 2.5 mi NNW 11.5 mph - 0.30 in Rain , Thunderstorm Heavy Thunderstorms and Rain
3:46 AM 64.4 °F - 60.8 °F 88% 30.08 in 4.0 mi NNE 5.8 mph - 0.36 in Rain , Thunderstorm Thunderstorms and Rain
3:53 AM 64.0 °F - 61.0 °F 90% 30.04 in 6.0 mi NE 5.8 mph - 0.37 in Rain , Thunderstorm Thunderstorms and Rain
4:19 AM 64.4 °F - 62.6 °F 94% 30.07 in 5.0 mi SSW 3.5 mph - 0.03 in Rain Rain
4:53 AM 64.0 °F - 62.1 °F 93% 29.99 in 6.0 mi SE 8.1 mph - 0.12 in Rain Rain
5:06 AM 64.4 °F - 62.6 °F 94% 30.01 in 10.0 mi SE 10.4 mph - 0.00 in Rain , Thunderstorm Light Rain
5:21 AM 64.4 °F - 62.6 °F 94% 30.01 in 10.0 mi SSE 13.8 mph - 0.01 in Rain Light Rain
5:53 AM 64.0 °F - 61.0 °F 90% 29.90 in 10.0 mi South 8.1 mph 25.3 mph 0.03 in Rain Light Rain
6:53 AM 64.0 °F - 60.1 °F 87% 29.92 in 10.0 mi South 5.8 mph - 0.00 in   Clear
7:53 AM 64.0 °F - 61.0 °F 90% 29.91 in 10.0 mi ENE 6.9 mph - N/A   Clear
8:53 AM 64.9 °F - 62.1 °F 90% 29.94 in 10.0 mi NNW 4.6 mph - N/A   Partly Cloudy
9:53 AM 66.9 °F - 63.0 °F 87% 29.96 in 10.0 mi Calm Calm - 0.01 in   Partly Cloudy
10:53 AM 69.1 °F - 63.0 °F 81% 29.99 in 10.0 mi North 5.8 mph - N/A   Partly Cloudy
11:53 AM 70.0 °F - 63.0 °F 78% 29.94 in 10.0 mi South 4.6 mph - N/A   Clear
12:53 PM 75.9 °F - 63.0 °F 64% 29.98 in 10.0 mi North 8.1 mph - N/A   Clear
1:27 PM 77.0 °F - 64.4 °F 65% 30.00 in 10.0 mi North 6.9 mph - N/A   Mostly Cloudy
1:39 PM 78.8 °F - 64.4 °F 61% 30.00 in 10.0 mi NE 9.2 mph - N/A   Scattered Clouds
1:53 PM 78.1 °F - 63.0 °F 60% 29.96 in 10.0 mi North 3.5 mph - N/A   Partly Cloudy
2:53 PM 80.1 °F 81.9 °F 64.9 °F 60% 29.97 in 10.0 mi NNE 12.7 mph 17.3 mph N/A   Clear
3:53 PM 80.1 °F 81.5 °F 63.0 °F 56% 29.98 in 10.0 mi NNE 10.4 mph - N/A   Scattered Clouds
4:53 PM 80.1 °F 81.5 °F 63.0 °F 56% 29.98 in 10.0 mi East 6.9 mph - N/A   Scattered Clouds
5:53 PM 81.0 °F 82.5 °F 64.0 °F 56% 29.97 in 10.0 mi NE 6.9 mph - N/A   Partly Cloudy
6:53 PM 79.0 °F - 64.0 °F 60% 29.96 in 10.0 mi ENE 6.9 mph - N/A   Clear
7:53 PM 75.9 °F - 64.0 °F 67% 29.98 in 10.0 mi ENE 6.9 mph - N/A   Clear
8:53 PM 72.0 °F - 64.0 °F 76% 29.98 in 10.0 mi East 4.6 mph - N/A   Clear
9:53 PM 70.0 °F - 64.0 °F 81% 30.00 in 10.0 mi East 3.5 mph - N/A   Clear
10:53 PM 68.0 °F - 62.1 °F 81% 30.01 in 10.0 mi NE 6.9 mph - N/A   Clear
11:53 PM 64.9 °F - 61.0 °F 87% 30.04 in 10.0 mi Calm Calm - N/A   Clear